Flag for Canada Weather past 2 weeks in Norfolk, Ontario, Canada

Now
51 °F

Cool.


Feels Like: 51 °F
Forecast: 52 / 73 °F
Wind: 1 mph from Northeast

Location: Delhi CS

Current Time: Jul 10, 2014 at 9:01:05 AM

Latest Report: Jul 10, 2014 at 7:00 AM


Visibility: N/A

Pressure: 30.10 "Hg

Humidity: 99%

Dew point: 51 °F

Location of NorfolkLocation

Historic Weather in Norfolk — Graph

°F

Norfolk temperature yesterday

Maximum temperature yesterday: 71 °F (at 4:00 PM)
Minimum temperature yesterday: 54 °F (at 11:00 PM)
Average temperature yesterday: 64 °F

Past Weeks' High & Low Weather Summary

 TemperatureHumidityPressure
High87 °F (Jun 28, 4:00 PM)100% (Jun 27, 3:00 AM)30.25 "Hg (Jun 27, 3:00 AM)
Low46 °F (Jul 4, 5:00 AM)31% (Jun 28, 6:00 PM)29.52 "Hg (Jul 8, 1:00 PM)
Average70 °F76%29.92 "Hg
* Reported Jun 25 7:00 AM — Jul 10 7:00 AM, Norfolk, Weather by CustomWeather, © 2014

Note: Actual official high and low records may vary slightly from our data, if they occured in-between our weather recording intervals... More about our weather records

Advertising

Norfolk weather history for previous 24 hours

 ConditionsComfort  
Time TempWeatherWind HumidityBarometerVisibility
7:00 AM
Jul 10
51 °FCool.1 mph99%30.10 "HgN/A
6:00 AM46 °FCool.1 mph100%30.07 "HgN/A
5:00 AM48 °FCool.1 mph92%30.06 "HgN/A
4:00 AM49 °FCool.No wind99%30.06 "HgN/A
3:00 AM49 °FCool.1 mph98%30.05 "HgN/A
2:00 AM50 °FCool.2 mph97%30.04 "HgN/A
1:00 AM51 °FCool.No wind97%30.03 "HgN/A
12:00 AM53 °FCool.No wind97%30.03 "HgN/A
11:00 PM
Jul 9
54 °FCool.No wind95%30.01 "HgN/A
10:00 PM57 °FCool.2 mph88%29.98 "HgN/A
9:00 PM61 °FCool.2 mph78%29.95 "HgN/A
8:00 PM66 °FMild.6 mph54%29.93 "HgN/A
7:00 PM69 °FMild.7 mph48%29.92 "HgN/A
6:00 PM69 °FMild.10 mph43%29.92 "HgN/A
5:00 PM71 °FMild.6 mph51%29.91 "HgN/A
4:00 PM71 °FMild.6 mph51%29.89 "HgN/A
3:00 PM69 °FMild.8 mph54%29.88 "HgN/A
2:00 PM68 °FMild.8 mph59%29.88 "HgN/A
1:00 PM67 °FMild.7 mph61%29.88 "HgN/A
12:00 PM65 °FMild.7 mph69%29.85 "HgN/A
11:00 AM66 °FMild.9 mph70%29.84 "HgN/A
10:00 AM65 °FMild.7 mph75%29.82 "HgN/A
9:00 AM65 °FMild.7 mph76%29.80 "HgN/A
Weather by CustomWeather, © 2014

See weather overviewHow to use our weather pages